Regional Weather Roundup
Issued by NWS

Home | Current Version | Previous Version | Graphics & Text | Print | Product List | Glossary On
Versions: 1 2 3 4 5 6 7 8 9 10 11 12 13 14 15 16 17 18 19 20 21 22 23 24 25 26 27 28 29 30 31 32 33 34 35 36 37 38 39 40 41 42 43 44 45 46 47 48 49 50
879
ASUS43 KMKX 231800
RWRWI

WISCONSIN REGIONAL WEATHER ROUNDUP
NATIONAL WEATHER SERVICE MILWAUKEE/SULLIVAN WI
100 PM CDT THU MAR 23 2017

NOTE: "FAIR" INDICATES FEW OR NO CLOUDS BELOW 12,000 FEET WITH NO
SIGNIFICANT WEATHER AND/OR OBSTRUCTIONS TO VISIBILITY.

WIZ001-002-006>008-014>016-023>028-231900-
NORTHWEST WISCONSIN

CITY           SKY/WX    TMP DP  RH WIND       PRES   REMARKS
SUPERIOR ARPT  CLOUDY    38  25  60 SW8       30.05F WCI  32
ASHLAND        NOT AVBL
HAYWARD        CLOUDY    37  21  52 S13       30.05F WCI  29
6HR MIN TEMP:  31; 6HR MAX TEMP:  37;

SIREN          CLOUDY    38  23  55 S15G21    30.05F WCI  29
CUMBERLAND     CLOUDY    34  21  60 SE13G21   30.06F WCI  25
RICE LAKE      CLOUDY    35  23  62 SE10      30.09F WCI  27
CHETEK         CLOUDY    35  24  63 SE12      30.09F WCI  27
LADYSMITH      CLOUDY    36  23  60 S9        30.11F WCI  29
6HR MIN TEMP:  29; 6HR MAX TEMP:  36;

EAU CLAIRE     NOT AVBL
MENOMONIE      CLOUDY    38  21  49 SE12      30.09F WCI  31
NEW RICHMOND   CLOUDY    38  21  49 S17       30.06F WCI  29
OSCEOLA        CLOUDY    39  24  54 SE13      30.08F WCI  31
$$

WIZ003>005-009-010-017-018-231900-
NORTH CENTRAL WISCONSIN

CITY           SKY/WX    TMP DP  RH WIND       PRES   REMARKS
MANITOWISH WTR CLOUDY    33  19  56 S14G20    30.08F WCI  23
6HR MIN TEMP:  25; 6HR MAX TEMP:  33;

ARBOR VITAE    CLOUDY    34  20  55 S13       30.10F WCI  25
WOODRUFF       CLOUDY    34  20  55 S13       30.10F WCI  25
RHINELANDER    CLOUDY    34  21  59 S8        30.12F WCI  27
6HR MIN TEMP:  26; 6HR MAX TEMP:  34; 6HR PCP:  0.03;

EAGLE RIVER    CLOUDY    32  17  54 S9G17     30.13F WCI  24
LAND O LAKES   CLOUDY    31  20  62 S13G18    30.13F WCI  22
PHILLIPS       CLOUDY    34  22  61 S14       30.08F WCI  25
6HR MIN TEMP:  26; 6HR MAX TEMP:  34;

TOMAHAWK       CLOUDY    34  22  60 S5        30.14F WCI  30
MEDFORD        CLOUDY    34  21  60 S17       30.13F WCI  23
MERRILL        CLOUDY    36  21  53 S8G18     30.15F WCI  30
6HR MIN TEMP:  26; 6HR MAX TEMP:  36;

$$

WIZ029-030-035-036-043>047-231900-
CENTRAL WISCONSIN

CITY           SKY/WX    TMP DP  RH WIND       PRES   REMARKS
WAUSAU         CLOUDY    37  21  52 S16       30.15F WCI  28
6HR MIN TEMP:  27; 6HR MAX TEMP:  37; 6HR PCP: TRACE;

MOSINEE        NOT AVBL
MARSHFIELD     CLOUDY    38  21  50 SE15      30.12F WCI  29
6HR MIN TEMP:  28; 6HR MAX TEMP:  38;

STEVENS POINT  CLOUDY    38  20  50 S13G18    30.20F WCI  30
WAUPACA        CLOUDY    42  22  45 SE15      30.23F
WAUTOMA        CLOUDY    40  21  46 SE14G23   30.20F WCI  32
6HR MIN TEMP:  28; 6HR MAX TEMP:  41; 6HR PCP: TRACE;

WISC RAPIDS    CLOUDY    42  21  43 S17G23    30.17F
6HR MIN TEMP:  28; 6HR MAX TEMP:  42;

CAMP DOUGLAS   NOT AVBL
$$

WIZ011>013-019>022-031-037>040-048>050-231900-
NORTHEAST WISCONSIN

CITY           SKY/WX    TMP DP  RH WIND       PRES   REMARKS
ANTIGO         CLOUDY    33  24  70 S16G22    30.18F WCI  23
SHAWANO        CLOUDY    40  24  52 S12G18    30.26F WCI  33
OCONTO         CLOUDY    35  26  69 S10G17    30.27F WCI  27
6HR MIN TEMP:  27; 6HR MAX TEMP:  35;

STURGEON BAY   CLOUDY    34  26  72 S17G25    30.28F WCI  23
6HR MIN TEMP:  30; 6HR MAX TEMP:  36;

GREEN BAY      CLOUDY    38  28  67 SE18      30.26F WCI  28
6HR MIN TEMP:  29; 6HR MAX TEMP:  38;

MANITOWOC      NOT AVBL
APPLETON       CLOUDY    37  21  52 SE18G25   30.22F WCI  27
CLINTONVILLE   CLOUDY    37  23  56 SE15      30.25F WCI  28
OSHKOSH        CLOUDY    42  23  46 S17G24    30.23F
6HR MIN TEMP:  30; 6HR MAX TEMP:  42;

$$

WIZ032>034-041-042-053>061-231900-
SOUTHWEST WISCONSIN

CITY           SKY/WX    TMP DP  RH WIND       PRES   REMARKS
LA CROSSE      CLOUDY    43  22  43 S15G24    30.12F
6HR MIN TEMP:  35; 6HR MAX TEMP:  43;

SPARTA         CLOUDY    40  22  47 S12       30.16F WCI  33
VIROQUA        CLOUDY    38  22  52 SE13      30.14S WCI  30
BOSCOBEL       CLOUDY    44  21  40 VRB7G21   30.17F
6HR MIN TEMP:  33; 6HR MAX TEMP:  44;

PRAIRIE DU CHI CLOUDY    42  21  44 SE12G17   30.16F
PLATTEVILLE    CLOUDY    42  25  51 S20G25    30.18F
$$

WIZ056-057-062-063-064-067-068-231900-
SOUTH CENTRAL WISCONSIN

CITY           SKY/WX    TMP DP  RH WIND       PRES   REMARKS
REEDSBURG      CLOUDY    39  22  50 SE10G16   30.18F WCI  32
BARABOO/DELLS  CLOUDY    39  22  50 SE12G17   30.18F WCI  32
LONE ROCK      NOT AVBL
MINERAL POINT  CLOUDY    43  23  45 SE17G24   30.18F
MADISON        CLOUDY    43  20  39 S17       30.20F
6HR MIN TEMP:  31; 6HR MAX TEMP:  43;

MIDDLETON      CLOUDY    45  22  40 S18       30.20F
6HR MIN TEMP:  32; 6HR MAX TEMP:  45;

WATERTOWN      CLOUDY    42  22  44 S10G21    30.24F
MONROE         CLOUDY    43  21  42 S22G29    30.21F
JANESVILLE     PTSUNNY   48  19  32 SE18G25   30.22F
$$

WIZ051-052-058>065-066-070>072-231900-
SOUTHEAST WISCONSIN

CITY           SKY/WX    TMP DP  RH WIND       PRES   REMARKS
MILWAUKEE      PTSUNNY   41  22  46 SE15      30.29F
6HR MIN TEMP:  34; 6HR MAX TEMP:  42;

WAUKESHA       MOSUNNY   39  21  48 S13       30.27F WCI  32
MILWAUKEE/TIMM SUNNY     39  19  45 SE12G18   30.29F WCI  32
RACINE         MOSUNNY   39  23  52 SE21G29   30.31F WCI  29
6HR MIN TEMP:  34; 6HR MAX TEMP:  39;

KENOSHA        PTSUNNY   41  24  51 SE17      30.28F
6HR MIN TEMP:  33; 6HR MAX TEMP:  41;

FOND DU LAC    PTSUNNY   42  25  50 S21       30.23F
6HR MIN TEMP:  31; 6HR MAX TEMP:  42;

SHEBOYGAN      CLOUDY    36  26  67 S21G28    30.27F WCI  25
6HR MIN TEMP:  28; 6HR MAX TEMP:  36;

WEST BEND      CLOUDY    41  21  45 S13G20    30.27F
JUNEAU         CLOUDY    40  23  50 SE15      30.25F WCI  32
$$

LSZ147-162-231900-
LAKE SUPERIOR

STATION/POSITION TIME  TEMP    WIND        PRES    WAVE
                       AIR SEA DIR/SP/G            HT/PER
                 (UTC) (F)     (DEG/KT/KT) (MB)    (FT/S)
DEVILS ISLAND    1700   35     180/ 10/ 12 1019.9F
PORT WING        1740   37     180/  8/ 12 1017.9F
SAXON HARBOR     1730   38     200/  9/ 14 1018.6F
$$

LMZ867-665-643>646-231900-
LAKE MICHIGAN

STATION/POSITION TIME  TEMP    WIND        PRES    WAVE
                       AIR SEA DIR/SP/G            HT/PER
                 (UTC) (F)     (DEG/KT/KT) (MB)    (FT/S)
CHAMBERS ISLAND  1740   35     150/  9/ 17 1025.1F
NORTHPORT PIER   1740   34     160/ 12/ 23 1025.4F
SISTER BAY       1705   36     190/ 23/ 27   N/A
KEWAUNEE LAKESHO 1730   34     180/ 22/ 25 1025.9F
SHEBOYGAN LAKESH 1700   34     160/ 22/ 25 1027.5F
PORT WASHINGTON  1730   37     170/ 20/ 25 1027.1F
MILWAUKEE LAKESH 1720   34     150/ 23/ 25   N/A
KENOSHA   LAKESH 1700   34     160/ 22/ 25 1027.1
$$

TC  - TEMPERATURE IN CELSIUS
VSB - VISIBILITY IN STATUTE MILES
WCI - WIND CHILL INDEX
HX  - HEAT INDEX





USA.gov is the U.S. government's official web portal to all federal, state and local government web resources and services.